Regional Weather Roundup
Issued by NWS

Home | Current Version | Previous Version | Text Only | Print | Product List | Glossary Off
Versions: 1 2 3 4 5 6 7 8 9 10 11 12 13 14 15 16 17 18 19 20 21 22 23 24 25 26 27 28 29 30 31 32 33 34 35 36 37 38 39 40 41 42 43 44 45 46 47 48 49 50

000
ASUS43 KTOP 190308
RWRKS

WEATHER ROUNDUP FOR KANSAS
NATIONAL WEATHER SERVICE GOODLAND KS
1000 PM CDT WED OCT 18 2017

NOTE:  "FAIR" INDICATES FEW OR NO CLOUDS BELOW 12,000 FEET WITH NO
SIGNIFICANT WEATHER AND/OR OBSTRUCTIONS TO VISIBILITY.

KSZ001>006-013>018-027>032-041>047-190400-
NORTHWEST KANSAS

CITY           SKY/WX    TMP DP  RH WIND       PRES   REMARKS
GOODLAND       CLEAR     49  34  56 E9        30.12R
HAYS           CLEAR     52  40  63 N9        30.06R
HILL CITY      CLEAR     59  38  45 N10       30.09R
RUSSELL        CLEAR     63  42  46 N7        30.03R
$$

KSZ061>065-074>080-084>089-190400-
SOUTHWEST KANSAS

CITY           SKY/WX    TMP DP  RH WIND       PRES   REMARKS
DODGE CITY     CLEAR     59  46  62 S6        30.05R
ELKHART          N/A     58  41  53 SE7         N/A
GARDEN CITY    CLEAR     60  42  51 SE7       30.06R
GREAT BEND     CLOUDY    55  47  74 NW6       30.05R
LIBERAL        PTCLDY    62  49  62 SE9       30.06S
PRATT          PTCLDY    61  47  61 S6        30.04R
$$

KSZ066>073-081>083-090>101-190400-
SOUTHEAST KANSAS

CITY           SKY/WX    TMP DP  RH WIND       PRES   REMARKS
CHANUTE        CLOUDY    62  49  62 S9        30.06S
COFFEYVILLE    CLEAR     55  49  80 S7        30.07S
HUTCHINSON     CLOUDY    61  50  67 S5        30.03R
MEDICINE LODGE   N/A     65  47  52 S7        30.03R
NEWTON         CLOUDY    60  48  64 S9        30.05R
PARSONS        CLEAR     59  48  67 CALM      30.08R
WICHITA INTL   PTCLDY    59  50  72 S8        30.04R
WICHITA JABRA  CLOUDY    61  49  64 S9        30.04R
WICHITA MCCONL PTCLDY    61  47  61 S8        30.04R
WINFIELD       CLEAR     59  50  72 S7        30.06R
$$

KSZ007>012-019>026-033>040-048>060-102>105-190400-
NORTHEAST KANSAS

CITY           SKY/WX    TMP DP  RH WIND       PRES   REMARKS
CONCORDIA      CLEAR     59  50  72 CALM      30.02S
EMPORIA        CLEAR     56  48  74 S7        30.04R
LAWRENCE       CLEAR     53  50  89 E5        30.04R
MANHATTAN      CLEAR     53  51  93 CALM      30.03R
MARYSVILLE     CLEAR     54  50  87 CALM      30.03R
OLATHE IND     CLEAR     55  49  80 S6        30.06R
OLATHE EXE     CLEAR     57  50  77 S5        30.06R
SALINA         CLEAR     61  52  72 CALM      30.03R
TOPEKA BILLARD CLEAR     56  53  90 CALM      30.03R
TOPEKA FORBES  CLEAR     55  50  83 SE3       30.04R
$$




USA.gov is the U.S. government's official web portal to all federal, state and local government web resources and services.